Precipitable_Water
1.41 1.56 1.61 1.61 1.61 1.60 1.59 1.55 1.48 1.47 1.47 1.45 1.43 1.41 1.41 1.39 1.33 1.21 1.19 1.15 1.07 1.08 1.11 1.15 1.18 1.23 1.24 1.26 1.28 1.23 1.19 1.15 1.20 1.25 1.08 1.14 1.17 1.21 1.21 1.11 0.99 0.95 1.00
1.52 1.64 1.60 1.61 1.58 1.55 1.52 1.51 1.46 1.44 1.45 1.46 1.47 1.48 1.48 1.46 1.44 1.38 1.28 1.25 1.29 1.33 1.37 1.49 1.26 1.14 1.13 1.10 1.12 1.14 1.13 1.12 1.16 1.15 1.19 1.10 1.11 1.10 1.12 1.07 0.97 0.92 0.85
1.51 1.66 1.67 1.70 1.62 1.59 1.54 1.52 1.51 1.50 1.50 1.50 1.49 1.50 1.51 1.49 1.46 1.45 1.42 1.32 1.26 1.28 1.31 1.39 1.39 1.33 1.29 1.28 1.23 1.09 1.02 1.02 1.01 1.05 1.09 1.22 1.27 1.19 1.19 1.12 0.98 0.91 0.85
1.51 1.64 1.68 1.71 1.73 1.63 1.58 1.55 1.51 1.49 1.46 1.44 1.43 1.43 1.48 1.49 1.50 1.52 1.55 1.55 1.48 1.42 1.32 1.33 1.42 1.43 1.41 1.38 1.36 1.32 1.26 1.10 1.03 0.97 0.99 1.04 1.13 1.16 1.14 1.14 1.15 1.15 1.09
1.49 1.56 1.61 1.67 1.58 1.50 1.42 1.37 1.32 1.28 1.24 1.22 1.23 1.23 1.26 1.27 1.31 1.33 1.35 1.38 1.41 1.44 1.43 1.42 1.38 1.35 1.39 1.43 1.44 1.45 1.41 1.36 1.26 1.10 1.07 0.99 0.99 1.06 1.12 1.19 1.42 1.49 1.32
1.40 1.42 1.46 1.44 1.40 1.32 1.28 1.23 1.20 1.14 1.04 1.03 1.02 1.00 1.02 1.06 1.12 1.10 1.06 1.10 1.15 1.18 1.24 1.29 1.33 1.37 1.38 1.39 1.37 1.37 1.37 1.37 1.42 1.43 1.31 1.20 1.05 1.05 1.09 1.09 1.29 1.61 1.46
1.31 1.35 1.38 1.36 1.32 1.27 1.19 1.11 1.00 0.88 0.84 0.80 0.78 0.78 0.77 0.77 0.77 0.75 0.73 0.76 0.80 0.85 0.92 1.00 1.11 1.22 1.30 1.32 1.34 1.33 1.33 1.34 1.34 1.32 1.30 1.30 1.21 1.14 1.13 1.17 1.20 1.35 1.54
1.25 1.25 1.22 1.21 1.14 1.08 0.96 0.81 0.74 0.67 0.62 0.59 0.57 0.55 0.53 0.52 0.51 0.52 0.51 0.54 0.57 0.62 0.67 0.73 0.80 0.92 1.07 1.17 1.25 1.29 1.30 1.30 1.29 1.28 1.30 1.26 1.27 1.23 1.11 1.14 1.19 1.27 1.40
1.17 1.08 1.02 0.97 0.91 0.78 0.65 0.59 0.57 0.56 0.54 0.53 0.50 0.48 0.47 0.47 0.47 0.48 0.49 0.51 0.52 0.52 0.52 0.52 0.57 0.64 0.71 0.80 0.93 1.07 1.16 1.23 1.22 1.27 1.30 1.29 1.28 1.24 1.28 1.29 1.14 1.18 1.27
1.13 0.98 0.87 0.76 0.60 0.52 0.54 0.53 0.52 0.50 0.49 0.49 0.48 0.47 0.47 0.48 0.48 0.50 0.51 0.53 0.55 0.54 0.54 0.55 0.55 0.55 0.55 0.57 0.65 0.75 0.86 1.03 1.14 1.21 1.27 1.27 1.29 1.31 1.34 1.32 1.31 1.33 1.21
1.02 0.81 0.69 0.55 0.52 0.51 0.49 0.49 0.48 0.48 0.48 0.49 0.49 0.49 0.50 0.50 0.51 0.52 0.53 0.53 0.55 0.56 0.57 0.57 0.56 0.54 0.52 0.52 0.54 0.59 0.64 0.76 0.99 1.12 1.24 1.30 1.27 1.28 1.31 1.41 1.45 1.45 1.45
0.80 0.66 0.56 0.53 0.51 0.49 0.47 0.48 0.49 0.51 0.52 0.53 0.54 0.52 0.51 0.50 0.49 0.51 0.52 0.52 0.53 0.54 0.55 0.56 0.56 0.55 0.54 0.53 0.53 0.54 0.58 0.66 0.72 0.83 0.98 1.13 1.13 1.14 1.20 1.24 1.30 1.39 1.47
0.72 0.56 0.54 0.51 0.50 0.47 0.47 0.49 0.51 0.53 0.55 0.57 0.56 0.53 0.50 0.49 0.49 0.51 0.51 0.51 0.52 0.51 0.53 0.54 0.54 0.56 0.56 0.56 0.55 0.54 0.54 0.57 0.63 0.75 0.86 0.89 0.96 1.04 1.10 1.13 1.18 1.21 1.30
0.63 0.53 0.52 0.50 0.47 0.47 0.49 0.50 0.53 0.55 0.57 0.56 0.54 0.50 0.46 0.46 0.48 0.48 0.49 0.50 0.50 0.52 0.51 0.52 0.52 0.54 0.55 0.57 0.57 0.55 0.56 0.55 0.58 0.64 0.75 0.80 0.89 0.96 1.00 1.04 1.09 1.14 1.16
0.55 0.49 0.49 0.49 0.47 0.48 0.50 0.52 0.54 0.55 0.55 0.53 0.50 0.47 0.47 0.47 0.47 0.48 0.49 0.50 0.50 0.52 0.50 0.49 0.48 0.48 0.48 0.52 0.54 0.53 0.54 0.56 0.56 0.60 0.67 0.74 0.76 0.81 0.83 0.86 0.92 1.02 1.11
0.51 0.48 0.49 0.48 0.49 0.50 0.50 0.52 0.53 0.54 0.52 0.49 0.46 0.48 0.49 0.48 0.47 0.48 0.49 0.48 0.47 0.48 0.47 0.45 0.44 0.44 0.45 0.49 0.48 0.49 0.54 0.61 0.62 0.63 0.67 0.71 0.73 0.77 0.80 0.82 0.83 0.84 0.87
0.51 0.49 0.47 0.48 0.50 0.50 0.50 0.51 0.53 0.53 0.49 0.45 0.46 0.49 0.49 0.50 0.48 0.48 0.46 0.42 0.40 0.39 0.37 0.36 0.37 0.39 0.42 0.47 0.45 0.47 0.52 0.57 0.60 0.66 0.70 0.74 0.82 0.77 0.79 0.80 0.81 0.82 0.82
0.51 0.47 0.49 0.49 0.49 0.49 0.50 0.52 0.51 0.49 0.47 0.46 0.48 0.52 0.53 0.49 0.46 0.43 0.39 0.38 0.37 0.36 0.35 0.33 0.34 0.34 0.37 0.38 0.40 0.47 0.55 0.60 0.65 0.69 0.74 0.77 0.81 0.79 0.78 0.77 0.78 0.81 0.83
0.50 0.48 0.49 0.50 0.48 0.49 0.52 0.53 0.50 0.47 0.48 0.50 0.54 0.55 0.51 0.47 0.43 0.40 0.38 0.37 0.37 0.36 0.35 0.34 0.32 0.34 0.35 0.36 0.40 0.53 0.58 0.60 0.62 0.67 0.72 0.76 0.78 0.79 0.79 0.80 0.79 0.80 0.82
0.50 0.49 0.50 0.49 0.49 0.51 0.53 0.51 0.48 0.47 0.50 0.55 0.55 0.52 0.50 0.47 0.43 0.38 0.38 0.37 0.37 0.36 0.34 0.34 0.33 0.36 0.37 0.35 0.42 0.53 0.58 0.60 0.61 0.62 0.66 0.70 0.68 0.68 0.69 0.70 0.72 0.75 0.76
0.49 0.47 0.49 0.48 0.50 0.51 0.49 0.44 0.41 0.42 0.48 0.51 0.53 0.52 0.50 0.46 0.44 0.40 0.38 0.37 0.37 0.34 0.34 0.35 0.36 0.35 0.35 0.38 0.38 0.46 0.55 0.55 0.56 0.58 0.61 0.62 0.63 0.63 0.62 0.61 0.61 0.64 0.67
0.46 0.47 0.48 0.49 0.50 0.51 0.48 0.45 0.46 0.49 0.50 0.49 0.50 0.48 0.47 0.45 0.43 0.38 0.37 0.36 0.36 0.34 0.34 0.34 0.35 0.33 0.35 0.38 0.34 0.36 0.34 0.47 0.53 0.55 0.59 0.59 0.61 0.64 0.60 0.59 0.58 0.61 0.63
0.44 0.46 0.48 0.50 0.51 0.50 0.49 0.51 0.49 0.47 0.44 0.41 0.42 0.43 0.44 0.43 0.43 0.41 0.40 0.39 0.39 0.39 0.36 0.36 0.36 0.35 0.32 0.37 0.38 0.31 0.26 0.27 0.31 0.49 0.50 0.51 0.52 0.54 0.56 0.55 0.54 0.55 0.55
0.43 0.48 0.50 0.51 0.51 0.50 0.51 0.47 0.43 0.38 0.35 0.38 0.39 0.43 0.44 0.46 0.45 0.44 0.44 0.43 0.43 0.43 0.41 0.40 0.39 0.38 0.38 0.34 0.37 0.37 0.38 0.37 0.30 0.28 0.44 0.47 0.46 0.45 0.45 0.44 0.43 0.43 0.45
0.42 0.47 0.50 0.50 0.50 0.51 0.51 0.49 0.46 0.42 0.42 0.43 0.44 0.44 0.45 0.47 0.47 0.47 0.48 0.47 0.46 0.46 0.46 0.44 0.42 0.42 0.43 0.41 0.40 0.38 0.37 0.39 0.42 0.39 0.31 0.37 0.41 0.45 0.46 0.39 0.38 0.38 0.35
0.43 0.46 0.48 0.49 0.50 0.52 0.51 0.51 0.49 0.45 0.44 0.43 0.45 0.45 0.47 0.49 0.50 0.49 0.49 0.49 0.49 0.48 0.47 0.46 0.46 0.46 0.46 0.47 0.48 0.47 0.42 0.40 0.41 0.42 0.38 0.39 0.39 0.42 0.47 0.44 0.41 0.38 0.33
Wind_Speed
6 5 4 4 3 2 1 2 2 3 4 4 5 6 6 7 7 8 8 8 7 7 7 7 7 7 7 7 7 7 7 7 7 7 7 7 7 7 8 8 8 7 8
7 5 5 4 3 2 2 1 1 2 3 3 4 5 6 7 8 8 8 8 8 8 9 9 8 8 9 9 9 9 9 8 8 8 9 9 9 9 9 10 10 10 9
6 5 5 4 4 3 2 1 1 1 2 3 5 6 7 8 9 9 10 10 10 10 10 10 10 10 10 10 10 10 10 10 10 10 11 11 11 11 11 11 11 11 11
6 5 5 5 4 3 2 1 0 2 3 4 5 7 8 10 10 11 11 11 11 11 12 12 12 12 12 12 12 12 12 12 12 12 12 12 12 12 13 13 12 12 12
6 6 6 6 4 3 2 1 1 2 4 5 7 9 10 11 12 12 13 13 13 13 13 13 13 14 14 14 15 15 15 15 15 15 14 14 14 14 14 13 14 14 14
7 6 6 5 4 3 2 1 2 4 5 7 9 10 11 12 13 14 14 14 14 13 14 14 14 15 15 16 16 16 16 16 16 16 17 16 16 16 16 16 16 16 16
8 7 7 6 4 3 2 3 4 5 6 8 10 11 13 14 14 14 13 13 13 13 14 15 15 16 16 17 17 18 18 18 18 18 18 18 18 18 19 19 18 18 19
9 9 7 6 5 4 3 4 5 6 8 10 11 13 14 15 14 13 13 13 14 15 15 16 17 17 18 18 19 20 20 20 20 20 20 20 19 19 20 20 21 21 20
10 9 9 7 6 4 4 5 6 8 9 11 13 14 14 14 13 13 14 15 16 17 18 19 19 20 20 21 21 21 22 22 22 22 22 22 21 21 21 21 21 22 22
11 10 9 8 6 5 5 6 7 9 10 12 13 14 14 13 13 14 15 16 17 18 20 21 22 23 23 24 24 24 24 25 25 25 24 24 24 24 24 24 23 24 24
12 11 9 8 6 6 6 7 8 9 11 13 14 15 13 13 14 15 16 18 19 20 21 22 23 24 25 25 26 26 26 26 26 26 26 25 25 26 26 26 26 26 26
13 12 10 8 7 6 6 7 9 10 12 13 15 15 14 15 16 17 18 20 21 22 23 24 24 25 25 25 26 27 26 27 27 28 27 27 28 28 28 28 28 28 28
14 12 10 8 7 7 7 8 10 12 13 15 16 15 16 16 18 19 20 22 23 24 25 26 26 26 27 27 28 28 28 28 28 28 28 29 29 28 28 28 28 28 29
14 12 10 9 8 7 8 9 11 13 14 16 16 16 17 18 19 21 22 24 25 26 28 28 29 29 29 29 29 28 28 28 27 27 26 26 26 26 26 27 27 27 28
15 13 11 9 8 8 9 10 12 14 16 17 16 17 18 19 21 23 24 26 27 28 29 30 30 30 29 28 27 26 25 24 23 23 22 22 23 24 25 25 26 27 27
15 13 11 10 9 9 11 12 14 16 17 17 17 18 19 21 23 25 26 27 28 29 30 30 28 27 26 25 23 22 21 20 19 19 19 20 20 20 21 22 23 24 25
15 14 12 11 11 11 12 14 15 17 17 18 18 19 21 23 25 26 27 28 29 29 28 27 26 24 23 21 19 18 17 17 17 17 17 17 17 16 17 18 19 20 22
16 14 13 12 12 13 14 15 17 18 18 19 19 21 23 24 25 26 27 27 27 26 25 24 22 21 18 17 16 16 16 16 15 14 13 13 14 15 16 16 17 17 18
16 15 14 13 13 14 15 17 18 19 19 20 21 22 23 24 25 26 25 25 23 21 20 19 17 16 15 16 16 15 14 12 11 11 12 13 14 15 16 17 17 18 18
17 16 15 15 15 15 17 19 19 19 20 21 22 23 22 23 24 24 23 21 19 19 19 18 17 16 16 17 15 13 12 12 12 13 14 15 15 16 17 18 19 19 20
18 17 16 16 16 17 19 19 20 20 21 22 23 23 23 23 23 21 20 20 19 18 18 17 17 16 15 15 14 14 14 14 15 16 17 17 18 18 19 19 20 20 21
19 18 18 17 18 19 20 20 20 21 22 23 23 23 23 23 22 22 20 19 18 18 18 17 17 17 16 16 16 17 17 17 18 19 19 20 20 21 21 21 22 22 23
20 20 19 19 20 20 20 20 21 22 23 24 23 23 23 24 22 21 20 19 19 19 19 18 18 18 18 18 18 18 19 19 22 20 21 22 23 23 23 24 24 24 24
22 21 21 21 21 21 21 21 21 23 23 23 23 24 24 24 23 22 21 21 21 20 20 20 20 20 20 21 21 21 22 23 22 23 23 24 24 25 25 25 26 26 26
22 22 22 22 22 21 21 22 22 24 24 24 25 26 26 25 24 23 23 22 22 22 22 22 22 22 22 22 22 23 24 24 25 25 26 26 27 27 27 27 28 28 28
23 23 23 23 22 22 22 23 24 25 25 25 26 27 27 26 24 24 24 24 24 24 24 24 24 24 24 24 24 24 25 25 25 26 27 28 29 29 29 29 29 29 29
Wind_Direction
190 182 180 174 166 149 112 89 73 62 53 45 36 28 23 18 14 10 5 1 357 351 348 345 340 339 338 337 335 332 327 317 306 299 298 294 293 290 287 286 286 281 274
180 184 183 184 179 166 145 114 77 53 37 24 14 9 5 1 357 353 349 344 340 337 335 326 326 326 324 321 319 318 314 311 305 300 295 290 287 287 286 283 281 279 275
179 182 185 184 180 174 165 144 62 18 2 356 351 347 344 341 338 336 335 332 327 324 321 320 316 315 314 314 312 310 306 303 301 298 294 289 288 285 284 282 280 276 273
182 181 179 177 174 172 172 174 340 344 342 341 341 340 337 334 332 330 327 324 321 318 315 311 309 306 305 304 303 303 302 300 297 295 292 289 287 285 284 283 278 274 272
182 178 171 169 173 176 179 213 309 322 324 326 328 329 328 327 326 325 321 318 316 313 310 308 306 303 301 299 297 297 296 294 293 291 289 287 285 283 283 284 279 273 272
184 181 180 182 184 193 223 271 304 315 320 323 324 325 325 323 322 320 318 316 315 313 311 309 306 302 300 298 297 296 294 292 290 288 286 285 283 281 280 279 279 273 271
194 193 192 195 202 217 246 282 303 315 319 321 323 323 323 321 319 319 320 320 319 317 315 312 309 305 301 298 295 293 292 290 288 287 286 284 282 280 278 277 277 277 269
203 201 201 203 212 228 259 286 304 313 317 320 321 321 322 321 320 320 319 319 318 316 314 312 309 306 303 300 297 294 291 289 287 285 283 283 281 280 279 277 275 274 274
207 207 206 210 220 239 265 289 304 312 317 319 321 321 321 321 320 319 318 317 315 314 312 310 307 305 302 300 298 295 292 289 286 284 282 281 280 280 279 278 276 274 273
211 210 208 215 226 244 270 293 306 314 318 321 322 322 320 320 320 320 319 318 317 315 313 310 306 303 300 298 296 294 291 288 285 283 281 279 279 279 279 278 276 275 273
212 207 211 218 232 252 274 294 306 315 318 321 322 323 320 319 319 319 319 318 317 315 314 312 309 305 301 297 294 292 290 286 284 282 280 280 278 279 278 278 277 275 273
205 208 213 223 238 258 277 295 307 314 318 320 321 321 319 318 317 316 316 316 315 314 312 311 309 306 303 300 296 293 289 287 284 281 279 280 279 278 278 277 276 276 274
206 208 216 227 243 261 280 295 306 313 315 317 320 318 317 316 316 315 314 314 313 313 311 309 308 305 303 301 297 294 290 287 284 282 280 280 279 278 278 277 276 276 275
205 211 219 231 246 264 282 297 307 312 314 316 317 317 316 315 315 314 314 314 312 311 310 308 306 304 302 300 297 295 292 288 285 283 282 280 280 279 279 278 278 277 277
208 214 223 235 250 269 285 297 306 312 314 315 315 316 316 316 315 314 313 313 311 310 309 307 305 304 303 301 300 297 294 292 288 285 284 284 283 282 282 281 279 279 278
211 218 227 240 255 272 287 296 304 310 314 314 314 315 316 316 315 314 314 313 313 311 310 308 307 306 304 304 302 300 297 295 293 290 288 287 288 287 287 286 284 282 280
215 222 233 245 261 276 288 296 303 308 310 312 313 314 315 316 315 315 315 315 314 313 312 311 310 308 307 306 305 304 301 299 298 296 293 290 290 293 294 293 291 290 286
219 228 238 252 266 278 288 296 302 306 308 310 311 313 314 315 317 317 316 317 317 316 316 315 314 312 311 311 310 307 304 301 300 299 300 298 296 295 297 299 298 298 295
225 234 244 257 269 280 289 296 301 303 305 307 309 311 312 315 318 319 319 321 322 323 327 327 326 323 320 317 313 311 309 307 303 302 302 302 303 301 299 300 300 300 298
231 240 250 261 271 281 290 296 299 300 303 305 308 309 311 314 317 320 320 322 324 323 325 326 324 321 319 318 314 311 310 307 304 302 301 301 301 301 300 299 297 295 296
236 245 254 263 273 283 291 295 297 299 301 303 306 307 309 312 314 318 319 319 319 321 323 324 323 321 318 319 312 305 300 302 301 299 299 298 298 297 298 298 296 294 292
242 249 257 266 274 283 290 293 296 298 300 302 303 304 307 309 309 310 311 313 315 316 318 317 318 317 314 315 309 302 298 292 296 297 296 296 297 295 295 295 294 293 291
246 252 259 267 275 283 287 291 294 297 300 302 301 303 304 306 305 305 306 307 309 311 311 311 311 311 309 308 308 303 299 296 300 293 294 296 296 295 293 293 293 292 292
249 255 261 268 275 281 284 289 293 298 300 301 301 302 303 302 300 298 299 301 303 305 306 307 305 304 304 303 303 301 297 295 295 295 293 294 295 294 292 291 291 291 292
253 256 262 268 273 278 282 287 293 296 299 300 300 301 301 299 296 294 294 296 299 301 302 303 303 302 301 300 300 300 299 296 293 293 294 294 296 293 292 291 290 290 290
256 258 261 265 271 276 281 287 292 295 296 298 299 300 299 297 294 292 291 293 295 296 298 298 299 299 299 298 298 298 298 298 297 296 295 295 295 293 292 291 290 290 289